Weather Roundup
Issued by NWS Chicago, IL

Home | Current Version | Previous Version | Text Only | Print | Product List | Glossary On
Versions: 1 2 3 4 5 6 7 8 9 10 11 12 13 14 15 16 17 18 19 20 21 22 23 24 25 26 27 28 29 30 31 32 33 34 35 36 37 38 39 40 41 42 43 44 45 46 47 48 49 50
000
NZUS59 KLOT 290210
HRRLOT

CHICAGO AREA WEATHER ROUNDUP
NATIONAL WEATHER SERVICE CHICAGO/ROMEOVILLE IL
800 PM CST FRI NOV 28 2014

NOTE: "FAIR" INDICATES FEW OR NO CLOUDS BELOW 12,000 FEET WITH NO
SIGNIFICANT WEATHER AND/OR OBSTRUCTIONS TO VISIBILITY.

* THESE STATIONS ARE NOT UNDER NWS QUALITY CONTROL. THEY ALSO MAY NOT
  REPORT WEATHER SUCH AS PRECIPITATION OR FOG.

ILZ005-006-012>014-019>023-290300-
NORTHEAST ILLINOIS

CITY           SKY/WX    TMP DP  RH WIND       PRES   REMARKS
OHARE          CLOUDY    33  28  81 S10       29.93F WCI  25
MIDWAY         CLOUDY    35  27  72 S12       29.94F WCI  27
AURORA         CLOUDY    35  29  78 S13       29.93S WCI  26
LANSING*       CLOUDY    33  26  78 S14       29.96F WCI  23
JOLIET*        MOCLDY    34  30  86 S12       29.94S WCI  25
WAUKEGAN       CLOUDY    32  26  78 S7        29.93S WCI  26
DUPAGE AIRPORT CLOUDY    34  29  82 S14       29.92F WCI  25
WHEELING       CLOUDY    33  27  78 S10       29.95S WCI  25
KANKAKEE*      PTCLDY    33  29  88 SE12      29.96F WCI  24
MORRIS*        MOCLDY    34  32  93 S9        29.93R WCI  26
LEWIS AIRPORT* CLOUDY    34  30  86 S14       29.94S WCI  24
NORTHERLY IS     N/A     33  26  76 S13         N/A  WCI  24
$$

WIZ051-052-058>065-066-070>072-290300-
SOUTHEAST WISCONSIN

CITY           SKY/WX    TMP DP  RH WIND       PRES   REMARKS
MILWAUKEE      FLURRIES  32  26  78 S10       29.93S WCI  24
KENOSHA*       CLOUDY    31  26  82 S7        29.93F WCI  24
RACINE*        CLOUDY    33  27  78 S13       29.94F WCI  24
BURLINGTON     CLOUDY    29  26  88 CALM      29.92S
WAUKESHA       CLOUDY    27  23  86 SE12      29.93F WCI  16
WEST BEND      MIX PCPN  28  25  86 SE5       29.89F WCI  23
$$

INZ001>003-010>013-019-020-290300-
NORTHWEST INDIANA

CITY           SKY/WX    TMP DP  RH WIND       PRES   REMARKS
GARY*          CLOUDY    34  25  69 SE17      29.97F WCI  23
MICHIGAN CITY* NOT AVBL
RENSSELAER*    NOT AVBL
VALPARAISO     CLOUDY    30  22  72 SE13      29.99F WCI  20
$$

LMZ740>746-290300-
SOUTHERN LAKE MICHIGAN

STATION/POSITION TIME  SKY/WX   TEMP WIND        PRES    VSBY
                                AIR  DIR/SP/G
                 (UTC)          (F)  (DEG/KT/KT) (MB)    (MI)
HARRISON CRIB    0200            33  170/ 22/ 27   N/A
BURNHAM HARBOR   0200            33  170/  5/ 14   N/A
CALUMET HARBOR   0200            33  170/ 11/ 14 1012.8F
BURNS HARBOR     NOT AVBL
MICHIGAN CITY    0200            31  140/ 18/ 24   N/A
$$

ABBREVIATIONS USED IN REMARKS
   TC - TEMPERATURE IN CELSIUS
  WCI - WIND CHILL INDEX
   HX - HEAT INDEX
  VSB - VISIBILITY
$$


USA.gov is the U.S. government's official web portal to all federal, state and local government web resources and services.